DMSP 5D-2 F11 DEB, 28325

Orbit data source: Space-Track

DMSP 5D-2 F11 DEB, 28325 is space debris in SSO originally from a launch on Thu, 28 Nov 1991 UTC launched from the Air Force Western Test Range (AFWTR). Debris objects in space refer to the collection of defunct objects orbiting the Earth. Examples of debris include non-operational satellites, rocket bodies, and fragments generated from explosions, collisions, or faulty payload assembly.

Loading next visibility...
Identifier
28325, 1991-082AN
Orbit
SSO
Country
Flag of USUS
Related business
Manufacturer
Unknown
Mission
Spacecraft
Bus & Motor
Unknown
Mass
Unknown
Launch date (UTC)
1991-11-28 (35 years ago)
Launch vehicle
Unknown
Launch site
Air Force Western Test Range (AFWTR)
Object type
Payload
Rocket body
Debris
Shape & HBR
Unknown shape, 0.1 m
Radar Cross Section
Medium (>0.1 m² and <1 m²)

Expand to show TLE details & history
Last TLE update: 4 days ago

TLE from 4 days ago
0 DMSP 5D-2 F11 DEB
1 28325U 91082AN  26205.66013979  .00047374  00000-0  51923-2 0  9993
2 28325  98.5645  98.8748 0027021  10.1152  20.0618 14.87282527148427
Epoch: 2026-07-24T15:50Z
TLE epoch observation values (Epoch: 2026-07-24T15:50:36.077Z)
Latitude
29.96464°
Longitude
-86.11293°
Altitude
592.522 km
Speed
7.576 km/s
True Right ascension
06h 15m 41s
True Declination
29° 48' 45"
Sunlit
Object was in daylight at epoch
Visualization orbit readout
Latitude
Unknown
Longitude
Unknown
Altitude
Unknown
Speed
Unknown
Apparent Right ascension
Unknown
Apparent Declination
Unknown
Sunlit
N/A
Visualization observer readout
Local Sidereal Time
23:35:39
Azimuth
Unknown
Elevation
Unknown
Doppler factor
Unknown
Orbital elements
Apogee altitude
622.358 km
Perigee altitude
584.628 km
Semi-major axis
6,981.63 km
Eccentricity
0.0027
Inclination
98.5645°
RAAN
98.8748°
Arg. of periapsis
10.1152°
True anomaly
20.16835°
Mean anomaly
20.0618°
Eccentric anomaly
20.11504°
Mean motion
3.72056 °/min
Orbital period
96.76 mins
BSTAR
0.0051923
Loading maneuver chart data...
Computing Atmospheric mass density...

Documentation

Showing up to 5 results
|